This is the latest recevied weather packets stored in our database for station/object N2ZVN. If no packets are shown the sender has not sent any weather packets the latest 10 day(s).
| Time | Temp. | Humidity | Pressure | Rain* | Wind** | Luminosity | Snow |
|---|---|---|---|---|---|---|---|
| 1777919448 | 21.67° C | 37% | 1004.8 hPa | 0 mm | - | 184 W/m² | - |
| 1777919144 | 21.67° C | 41% | 1004.9 hPa | 0 mm | - | 354 W/m² | - |
| 1777918842 | 21.67° C | 38% | 1004.8 hPa | 0 mm | - | 610 W/m² | - |
| 1777918539 | 21.67° C | 38% | 1005.2 hPa | 0 mm | - | 410 W/m² | - |
| 1777918237 | 21.11° C | 39% | 1005 hPa | 0 mm | - | 636 W/m² | - |
| 1777917936 | 21.11° C | 39% | 1005.1 hPa | 0 mm | - | 525 W/m² | - |
| 1777917634 | 21.11° C | 42% | 1005.2 hPa | 0 mm | - | 422 W/m² | - |
| 1777917331 | 21.11° C | 40% | 1005.3 hPa | 0 mm | - | 339 W/m² | - |
| 1777917028 | 21.11° C | 40% | 1005.4 hPa | 0 mm | - | 660 W/m² | - |
| 1777916726 | 21.11° C | 41% | 1005.5 hPa | 0 mm | - | 574 W/m² | - |
| 1777916422 | 21.11° C | 39% | 1005.4 hPa | 0 mm | - | 450 W/m² | - |
| 1777916119 | 20.56° C | 42% | 1005.4 hPa | 0 mm | - | 367 W/m² | - |
| 1777915817 | 20.56° C | 40% | 1005.3 hPa | 0 mm | - | 562 W/m² | - |
| 1777915513 | 20.56° C | 39% | 1005.5 hPa | 0 mm | - | 651 W/m² | - |
| 1777915209 | 20.56° C | 41% | 1005.5 hPa | 0 mm | - | 597 W/m² | - |
| 1777914906 | 20.56° C | 41% | 1005.5 hPa | 0 mm | - | 641 W/m² | - |
| 1777914603 | 20.56° C | 39% | 1005.5 hPa | 0 mm | - | 649 W/m² | - |
| 1777914299 | 20° C | 44% | 1005.5 hPa | 0 mm | - | 837 W/m² | - |
| 1777913996 | 20.56° C | 41% | 1005.6 hPa | 0 mm | - | 848 W/m² | - |
| 1777913692 | 20° C | 39% | 1005.7 hPa | 0 mm | - | 848 W/m² | - |
| 1777913389 | 20° C | 43% | 1005.5 hPa | 0 mm | - | 846 W/m² | - |
| 1777913086 | 20° C | 41% | 1005.8 hPa | 0 mm | - | 845 W/m² | - |
| 1777912782 | 20° C | 43% | 1005.8 hPa | 0 mm | - | 838 W/m² | - |
| 1777912478 | 20° C | 42% | 1005.9 hPa | 0 mm | - | 830 W/m² | - |
| 1777912175 | 19.44° C | 42% | 1005.8 hPa | 0 mm | - | 739 W/m² | - |
* Rain latest hour (hover to see other rain measurements)
** Current wind speed in m/s (hover to see current wind gust speed)